Tracking 18843 objects as of 21-November-2017
HD Live streaming from Space Station
objects crossing your sky now

FENGYUN 1C DEB

Track FENGYUN 1C DEB now!
10-day predictions


NORAD ID: 30334
Int'l Code: 1999-025AAV
Perigee: 842.2 km
Apogee: 1,081.9 km
Inclination: 98.9 °
Period: 104.2 minutes
Semi major axis: 7333 km
RCS: 0.0454 m2 (small)
Launch date: May 10, 1999
Source: People's Republic of China (PRC)
Launch site: Taiyaun Space Center, China (TSC)

Note: This is SATELLITE DEBRIS
aabbcc
Your satellite tracking list
Your tracking list is empty




NASA's NSSDC Master Catalog

Two Line Element Set (TLE):
1 30334U 99025AAV 17324.48642410 +.00000760 +00000-0 +66732-3 0  9994
2 30334 098.8816 149.9435 0163397 011.3916 040.1376 13.82529256544557
Source of the keplerian elements: AFSPC